Location: Newark
(31.5350°N, 35.0986°E)
Time: 11:12:16
(UTC+00:00)

Explorer 7 - Pass Details

Date: 20 October 2019
Orbit: 485 x 680 km, 50.3° (Epoch: 13 November)

Event Time Altitude Azimuth Distance (km) Brightness Sun altitude
Rises 08:20:45 0° 238° (WSW) 2,575 10.3 45.5°
Reaches altitude 10° 08:23:01 10° 244° (WSW) 1,678 9.4 45.7°
Maximum altitude 08:26:40 48° 320° (NW) 643 7.3 45.9°
Drops below altitude 10° 08:30:18 10° 36° (NE) 1,663 9.1 46.2°
Sets 08:32:31 0° 42° (NE) 2,550 10.0 46.4°
